Wind_Speed
50 54 58 63 68 72 75 79 81 83 85 85 84 82 79 76 74 72 69 67 64 62 59 57 54 52 50 49 48 47 47 49 52 55 59 63 67 72 75 80 87 92 97
53 57 61 66 70 73 77 80 82 84 85 84 83 80 76 74 71 69 67 64 62 59 56 54 52 50 47 46 45 45 43 44 46 49 52 57 62 67 71 76 81 87 93
55 59 64 68 71 74 77 80 82 84 84 82 80 76 73 70 68 65 63 61 59 57 55 53 51 49 47 45 43 42 41 40 42 44 46 51 56 62 67 72 76 81 87
57 61 65 69 72 75 78 81 82 83 82 80 77 74 71 69 66 64 61 59 58 57 55 53 51 49 47 46 44 42 41 40 39 40 42 45 50 57 62 68 72 76 81
59 63 66 70 73 75 78 81 82 82 80 77 74 72 70 67 65 62 60 58 57 56 55 54 53 51 49 48 46 45 43 41 39 38 39 41 45 51 57 62 68 72 76
60 64 67 70 73 76 78 80 81 80 77 74 72 70 68 66 63 60 58 57 56 56 56 55 54 52 51 50 49 48 46 43 41 39 38 39 41 46 52 58 63 68 72
61 64 67 70 73 76 78 79 79 77 75 72 71 69 67 65 62 60 58 58 58 57 57 56 55 54 53 52 50 49 48 46 43 41 39 38 39 42 47 54 60 65 70
62 65 67 70 73 75 77 78 78 75 73 70 68 67 65 63 61 60 60 61 60 60 59 57 55 54 52 51 49 48 48 47 45 43 40 39 38 40 44 50 56 62 67
62 65 68 70 72 75 76 77 76 73 71 69 67 65 64 62 61 60 61 62 62 61 61 59 57 55 52 48 44 42 43 44 44 43 42 40 39 39 41 46 53 59 64
62 65 68 70 72 74 75 75 74 71 69 67 65 64 62 62 61 61 62 62 63 63 62 61 58 54 49 44 39 36 37 38 41 42 41 40 39 39 40 43 49 56 61
62 65 67 69 71 73 74 74 72 69 67 65 63 62 61 61 61 61 63 63 64 64 63 60 56 52 47 41 35 30 28 30 34 38 39 39 38 38 39 41 45 52 58
62 65 67 69 71 72 73 72 70 67 65 63 62 61 61 61 61 61 63 64 65 65 63 60 55 50 46 42 35 27 21 20 25 31 35 36 37 37 37 39 42 48 54
62 64 66 68 70 71 71 70 68 65 63 62 61 60 60 60 61 61 63 64 65 65 63 60 55 50 45 41 36 28 19 12 15 22 28 31 33 35 36 38 40 45 51
62 64 66 67 69 70 70 68 66 64 62 60 60 59 60 60 61 62 63 65 65 64 63 59 55 50 45 40 35 29 21 11 5 13 20 25 28 31 33 36 38 42 48
61 63 65 66 68 69 68 67 65 62 61 59 59 59 59 60 61 62 63 64 65 64 63 60 55 50 44 39 33 28 23 14 2 9 15 19 23 27 31 33 35 38 44
61 63 64 66 67 68 67 65 63 61 60 59 58 58 58 59 60 61 62 63 64 64 63 61 56 51 45 38 31 26 21 14 6 7 12 15 19 23 27 30 33 36 40
61 62 64 65 66 66 66 64 62 60 59 58 57 57 57 58 59 60 62 62 63 63 62 60 57 53 46 38 31 26 21 14 7 6 9 11 15 19 23 26 30 33 36
61 62 63 64 65 65 65 63 61 60 58 57 56 56 56 57 58 59 60 61 62 62 62 60 58 55 50 41 32 26 21 14 8 4 4 7 11 15 20 23 27 30 33
60 61 62 63 64 64 64 62 61 59 58 57 56 55 55 56 57 58 59 60 61 61 61 60 59 56 52 46 36 27 21 14 9 4 1 5 9 12 17 21 24 27 30
60 61 62 63 63 64 63 62 60 59 57 56 55 55 55 55 56 56 57 59 60 60 61 60 59 57 54 49 42 32 24 17 11 6 2 3 6 9 13 18 22 25 28
60 61 61 62 62 63 62 61 60 58 57 56 55 54 54 55 55 55 56 57 58 59 60 60 59 57 54 51 46 39 31 23 16 10 5 3 5 8 11 15 19 23 26
59 60 61 61 61 62 62 61 59 58 56 56 55 54 54 54 54 54 54 55 55 56 57 57 57 56 55 52 48 44 38 31 22 15 9 4 3 7 10 13 17 21 24
59 60 60 60 61 61 61 60 59 57 56 55 54 54 53 54 53 53 53 52 53 54 54 55 55 55 54 53 50 46 42 38 31 22 13 7 3 5 8 11 15 19 23
59 59 60 60 60 60 60 60 58 57 55 54 54 53 52 52 53 52 51 51 51 51 52 53 53 53 53 52 50 49 45 41 36 30 21 12 6 4 7 10 14 18 22
59 59 59 59 59 59 59 59 58 56 54 53 53 52 52 51 52 52 51 50 51 51 52 52 52 51 51 51 51 49 47 44 39 34 28 19 11 5 4 8 13 17 21
58 58 59 58 58 58 58 58 57 56 54 52 51 51 51 50 51 50 51 51 50 50 51 51 51 50 50 50 49 48 47 45 42 38 32 25 17 10 3 5 11 16 20
Wind_Direction
326 327 328 328 328 328 327 327 326 325 324 323 323 322 322 323 322 321 320 318 317 315 313 310 307 303 298 293 288 284 279 273 265 256 248 244 241 237 233 230 227 224 222
329 330 330 330 330 329 329 328 326 325 325 325 325 325 326 325 325 324 323 321 319 316 314 311 308 304 300 295 291 286 282 277 270 261 251 242 240 236 233 230 227 224 221
332 332 332 331 331 330 330 328 327 327 327 327 328 328 328 327 327 326 324 322 320 318 316 313 310 306 302 297 293 288 283 279 274 267 256 245 238 236 233 230 228 225 222
334 333 333 332 332 331 331 329 329 329 329 330 330 330 330 330 329 328 326 325 322 320 318 315 311 307 302 297 292 288 284 279 274 269 262 251 240 234 231 230 227 225 223
335 334 333 333 333 333 332 331 330 331 332 332 332 332 332 332 332 331 329 327 325 322 319 315 311 306 301 296 290 286 282 278 274 268 262 256 246 235 230 228 226 224 222
335 334 334 335 334 334 333 332 332 333 334 334 334 334 335 334 334 333 332 330 327 324 321 317 312 307 301 295 289 283 278 275 271 266 260 255 249 239 230 225 224 223 221
335 336 336 336 335 335 334 334 334 335 335 336 336 336 337 336 336 335 334 333 331 328 324 320 315 309 303 296 288 281 274 270 267 263 258 253 248 241 232 224 222 221 220
337 337 337 337 337 336 336 336 336 336 337 337 338 339 339 339 338 338 337 336 334 332 329 326 321 316 309 301 291 281 272 265 261 258 254 250 246 241 234 226 220 219 219
338 338 338 338 338 337 337 337 337 338 339 339 340 341 341 341 341 341 341 340 338 336 334 331 327 323 317 309 297 284 272 263 257 253 249 246 243 239 234 227 221 218 217
339 339 339 339 339 339 339 339 339 340 341 342 343 343 344 344 344 344 344 343 342 340 339 337 334 332 328 320 308 292 276 262 253 247 244 241 239 237 232 228 222 218 216
341 341 341 341 341 340 340 341 341 342 343 344 345 345 346 347 347 347 347 346 345 345 344 344 343 343 341 336 325 308 287 266 251 243 238 236 235 233 230 227 222 218 215
342 342 342 342 342 342 342 342 343 344 345 346 346 347 349 350 350 350 350 350 350 349 350 350 350 351 350 348 344 332 309 274 250 237 232 230 230 230 228 225 222 218 214
343 343 343 343 343 343 343 344 345 346 347 348 348 350 351 352 353 353 353 354 354 354 354 355 356 356 357 356 355 351 339 300 251 232 225 224 225 226 225 223 221 217 214
344 344 344 345 345 345 345 346 347 348 348 349 351 352 353 355 355 356 356 357 357 358 359 359 360 0 1 1 2 4 1 348 257 216 213 215 220 222 222 221 219 217 213
345 346 346 346 346 346 347 347 348 349 350 351 352 354 355 357 358 359 359 360 0 1 2 3 4 4 5 6 7 11 14 18 51 182 194 204 214 218 220 219 217 216 213
347 347 347 347 348 348 348 349 350 351 352 353 354 356 357 358 359 1 1 2 3 4 5 7 7 7 7 8 11 16 23 35 73 153 180 196 209 216 218 217 216 214 212
348 348 348 349 349 349 350 351 351 352 353 354 356 357 358 359 0 2 3 4 5 6 7 9 10 10 11 11 14 19 24 37 72 141 177 195 208 213 215 215 214 213 211
349 349 349 350 350 351 351 352 353 354 355 356 357 358 359 0 2 3 5 6 7 8 9 11 12 13 14 14 16 20 27 37 51 89 174 199 210 212 213 213 212 211 210
349 350 351 351 351 352 352 353 354 355 356 357 358 359 0 1 3 4 5 7 8 10 11 12 14 16 17 17 18 20 24 30 33 37 174 213 218 216 214 213 211 210 209
350 351 352 352 352 353 353 354 355 356 357 358 359 360 1 2 4 5 6 7 9 10 12 13 15 17 18 19 20 20 19 20 19 13 344 242 227 220 215 213 211 209 208
351 351 352 353 353 353 354 355 356 357 358 358 359 0 2 3 5 6 7 8 9 11 12 13 15 17 18 19 21 20 19 16 14 9 357 302 239 222 215 213 210 209 207
351 352 353 353 353 354 355 356 356 357 358 359 360 1 2 4 5 7 8 9 10 11 12 13 15 16 18 19 20 21 21 19 15 10 2 338 269 229 217 214 211 208 206
351 352 353 353 354 354 355 356 357 358 359 359 0 1 2 3 5 7 8 9 10 11 12 13 15 16 18 19 19 19 20 20 19 15 8 356 310 242 222 216 212 207 203
351 352 353 354 354 355 355 356 357 357 359 360 0 1 2 3 4 5 7 8 10 11 12 13 14 15 17 18 19 20 20 19 18 18 15 6 347 278 233 219 211 205 202
351 352 353 354 354 355 355 356 357 357 358 360 0 1 2 3 3 4 6 7 8 9 11 12 13 14 15 16 18 19 20 20 20 18 17 15 7 339 254 221 210 204 200
350 352 353 353 354 355 355 356 357 357 358 359 0 1 2 2 3 4 4 5 7 9 9 10 11 13 14 15 16 18 18 19 19 19 18 17 14 7 327 228 211 204 200
Height
5792 5782 5771 5760 5748 5734 5720 5705 5690 5674 5658 5643 5626 5610 5594 5578 5563 5549 5535 5523 5512 5502 5493 5484 5475 5468 5462 5456 5452 5449 5447 5444 5444 5448 5455 5460 5465 5474 5485 5495 5509 5525 5542
5783 5773 5762 5750 5737 5724 5709 5693 5677 5661 5644 5627 5611 5594 5579 5564 5549 5535 5521 5509 5498 5488 5479 5470 5462 5454 5448 5442 5437 5433 5432 5429 5427 5429 5434 5441 5447 5454 5463 5472 5485 5501 5517
5775 5764 5753 5740 5727 5712 5697 5681 5665 5648 5630 5613 5597 5581 5567 5552 5538 5525 5512 5498 5486 5475 5465 5456 5448 5440 5434 5429 5424 5420 5417 5416 5413 5412 5415 5421 5428 5435 5444 5453 5465 5479 5494
5767 5756 5744 5731 5717 5702 5685 5669 5652 5634 5617 5600 5584 5569 5555 5541 5527 5513 5500 5487 5475 5463 5452 5443 5434 5427 5420 5414 5410 5406 5403 5402 5401 5400 5400 5403 5409 5417 5426 5436 5447 5460 5474
5759 5748 5735 5722 5707 5691 5675 5657 5639 5622 5604 5587 5572 5558 5543 5529 5516 5502 5490 5477 5464 5452 5440 5430 5420 5412 5404 5398 5394 5391 5388 5387 5387 5387 5387 5389 5393 5400 5409 5420 5430 5443 5455
5752 5740 5727 5712 5697 5681 5664 5646 5628 5611 5594 5578 5563 5548 5534 5520 5506 5493 5481 5468 5455 5442 5428 5417 5405 5395 5387 5381 5376 5373 5372 5371 5372 5373 5374 5376 5380 5384 5393 5404 5414 5426 5438
5745 5732 5719 5704 5688 5672 5654 5637 5619 5602 5586 5570 5554 5539 5525 5510 5497 5483 5471 5457 5444 5430 5416 5403 5390 5379 5369 5361 5356 5353 5353 5353 5355 5357 5360 5363 5366 5371 5378 5389 5399 5410 5422
5738 5725 5711 5696 5680 5663 5646 5629 5611 5595 5578 5563 5547 5532 5517 5502 5488 5474 5460 5446 5432 5417 5402 5388 5374 5361 5349 5340 5334 5331 5331 5334 5337 5341 5345 5349 5353 5358 5365 5374 5384 5395 5407
5732 5718 5704 5688 5672 5656 5638 5621 5604 5587 5571 5556 5540 5525 5510 5496 5481 5467 5452 5437 5421 5406 5390 5374 5359 5345 5331 5320 5313 5310 5310 5313 5318 5324 5329 5335 5341 5346 5352 5360 5370 5382 5393
5725 5711 5697 5681 5665 5648 5631 5613 5596 5580 5564 5548 5533 5519 5504 5490 5475 5460 5446 5430 5413 5397 5379 5363 5346 5330 5316 5304 5296 5292 5292 5295 5300 5307 5314 5321 5328 5334 5341 5349 5358 5368 5380
5719 5704 5690 5674 5658 5641 5624 5607 5590 5574 5558 5543 5528 5514 5500 5485 5470 5455 5440 5423 5407 5389 5371 5354 5336 5321 5307 5295 5285 5279 5277 5279 5284 5291 5300 5308 5316 5323 5330 5338 5346 5357 5368
5712 5698 5683 5668 5652 5635 5618 5601 5585 5569 5553 5539 5524 5510 5495 5481 5466 5451 5435 5419 5401 5383 5365 5348 5331 5316 5302 5289 5279 5272 5268 5268 5272 5279 5288 5297 5305 5313 5320 5328 5336 5346 5357
5707 5692 5677 5662 5646 5629 5613 5596 5580 5564 5549 5535 5521 5506 5492 5478 5463 5448 5432 5415 5398 5380 5362 5345 5329 5314 5300 5288 5278 5270 5265 5263 5265 5271 5280 5288 5296 5304 5312 5319 5327 5336 5347
5701 5687 5672 5657 5641 5624 5608 5592 5576 5560 5546 5532 5518 5504 5489 5475 5460 5445 5429 5413 5396 5379 5361 5344 5328 5314 5301 5289 5280 5272 5266 5263 5263 5268 5275 5283 5290 5297 5304 5311 5319 5328 5338
5696 5682 5667 5652 5636 5620 5604 5587 5572 5557 5543 5529 5516 5501 5487 5473 5458 5443 5428 5412 5395 5378 5362 5345 5330 5316 5304 5292 5283 5276 5270 5266 5266 5269 5274 5280 5285 5291 5297 5305 5314 5322 5331
5692 5678 5663 5647 5632 5616 5600 5584 5569 5555 5541 5528 5514 5500 5486 5472 5458 5443 5428 5413 5397 5380 5364 5348 5333 5319 5306 5296 5288 5280 5275 5271 5271 5273 5276 5280 5284 5288 5295 5302 5309 5316 5325
5687 5673 5659 5644 5629 5613 5597 5582 5567 5553 5539 5526 5512 5499 5485 5472 5458 5444 5429 5414 5399 5384 5367 5352 5337 5323 5311 5300 5292 5285 5280 5277 5275 5276 5278 5281 5284 5288 5293 5299 5305 5313 5321
5683 5669 5655 5640 5625 5610 5595 5580 5565 5552 5538 5524 5511 5498 5485 5472 5458 5444 5431 5417 5402 5387 5372 5357 5342 5329 5316 5305 5297 5290 5285 5282 5281 5280 5281 5283 5285 5288 5292 5297 5303 5310 5317
5679 5665 5651 5636 5622 5607 5592 5577 5563 5550 5537 5524 5511 5498 5486 5473 5459 5446 5433 5419 5405 5391 5377 5362 5348 5335 5323 5312 5303 5296 5290 5287 5285 5284 5284 5285 5287 5289 5292 5297 5302 5308 5314
5675 5661 5647 5633 5619 5604 5590 5576 5562 5549 5536 5523 5511 5498 5486 5473 5460 5448 5435 5421 5408 5395 5381 5367 5354 5341 5330 5319 5309 5302 5296 5291 5289 5287 5287 5287 5288 5289 5292 5296 5300 5306 5311
5672 5658 5644 5630 5616 5602 5588 5574 5561 5548 5535 5523 5511 5499 5486 5474 5461 5449 5436 5424 5411 5398 5385 5373 5360 5348 5337 5326 5317 5308 5301 5296 5292 5290 5288 5288 5288 5289 5291 5295 5299 5303 5309
5669 5655 5642 5628 5614 5600 5586 5573 5560 5547 5534 5522 5510 5499 5487 5475 5463 5451 5439 5427 5415 5403 5392 5380 5368 5356 5344 5334 5324 5315 5307 5301 5296 5292 5290 5289 5288 5289 5291 5294 5297 5301 5306
5666 5653 5639 5626 5612 5599 5585 5572 5559 5546 5534 5522 5510 5499 5487 5476 5465 5454 5443 5432 5420 5409 5398 5387 5375 5363 5352 5341 5331 5322 5313 5306 5300 5295 5292 5290 5289 5289 5290 5293 5296 5299 5304
5663 5650 5637 5624 5611 5597 5584 5571 5558 5545 5534 5522 5511 5499 5488 5477 5467 5456 5446 5435 5425 5414 5403 5392 5380 5369 5359 5349 5339 5329 5319 5312 5305 5299 5294 5291 5289 5289 5290 5292 5294 5298 5302
5660 5648 5635 5622 5609 5596 5583 5570 5557 5545 5534 5522 5511 5500 5490 5479 5468 5458 5447 5438 5427 5416 5406 5395 5385 5375 5365 5354 5344 5334 5326 5318 5310 5303 5298 5293 5291 5289 5289 5291 5293 5296 5301
5658 5645 5633 5620 5607 5594 5582 5569 5557 5545 5534 5523 5512 5502 5492 5481 5471 5460 5448 5437 5428 5419 5408 5398 5388 5378 5369 5359 5350 5340 5332 5323 5315 5308 5302 5296 5293 5290 5289 5290 5292 5295 5299